Showing default

COSMOS 198, 3081

Orbit data source: Space-Track

COSMOS 198, 3081 is a payload satellite owned by TSKBM (CIS) in LEO that was launched on Wed, 27 Dec 1967 UTC via a TSIKLON-2A launch vehicle from the Tyuratam Missile And Space Complex (TTMTR). Payloads include a variety of satellites, spacecraft, and rockets equipped with specific instruments for various scientific and technological missions. These include communications satellites like Starlink; space stations such as the ISS; scientific satellites like the Hubble; Earth observation satellites from companies like Planet Labs, Umbra, and HawkEye 360; GPS; miniature CubeSats for education and research; and military/defense satellites.

Loading next visibility...
COSMOS 198 details
Identifier
3081, 1967-127A
Orbit
LEO
Last TLE update1 day ago
Origin
Flag of CISTSKBM (CIS)
ManufacturerTSKBM/KB1
MissionDefense Sigint
Bus & MotorUS-A ROCH, Unknown motor
Mass3,800 kg wet, 1,140 kg dry
Launch date (UTC)
1967-12-27 (57 years ago)
Launch vehicle
TSIKLON-2A
Launch site
Tyuratam Missile And Space Complex (TTMTR)
Object type
Payload
Rocket body
Debris
Shape & HBRCyl + Cone, 5.8 m
Radar Cross Section6.586 m², Large (>1 m²)

Expand to show TLE details & history

TLE from 1 day ago
0 COSMOS 198
1 03081U 67127A   24356.19060926 -.00000016  00000-0  56250-4 0  9998
2 03081  65.1426 262.4684 0042480 274.1552  85.4660 13.93341570897924
Epoch: 2024-12-21T04:34Z
Definitive object data (Epoch: 2024-12-21T04:34:28.64Z)
Latitude0.00003°
Longitude103.60376°
Altitude916.573 km
Speed7.395 km/s
True Right ascension17h 29m 52s
True Declination0° 00' 00"
Sunlit
Object was in daylight at TLE epoch
Visualization TLE readout
Latitude-57.72775°
Longitude53.95556°
Altitude908.792 km
Speed7.412 km/s
Apparent Right ascension15h 51m 17s
Apparent Declination-51° 24' 36"
Sunlit
Object is in daylight
Visualization observer readout
Local Sidereal Time05:09:56
Azimuth136.689° SSE
Elevation-72.187°
Doppler factor1
Orbital elements
Apogee altitude946.514 km
Perigee altitude884.547 km
Semi-major axis7,293.667 km
Eccentricity0.004248
Inclination65.1426°
RAAN262.4684°
Arg. of periapsis274.1552°
True anomaly85.95146°
Mean anomaly85.466°
Eccentric anomaly85.70871°
Mean motion3.48437 °/min
BSTAR0.00005625
Orbital period103.32 mins
Loading maneuver chart data...
Loading historical data...
Loading historical data...
Loading historical data...
Loading historical data...
Loading historical data...
Loading historical data...
Loading historical data...
Other satellites on launch #127 in the year 1967 (1967-12-27 UTC)

COSMOS 198 Visibility forecast

Observer location: undefined°, undefined

Span
Click to sort rows by Start time (UTC) header in descending order
Start Az.
Max El. time (UTC)
Max El. Az.
Max El.
End time (UTC)
End Az.
10 mins2024-12-22 18:35:14.062Z169.685° S2024-12-22 18:40:14.062Z103.556° ESE29.019°2024-12-22 18:45:14.062Z49.303° ENE
9 mins2024-12-22 20:22:14.062Z247.9° W2024-12-22 20:26:14.062Z310.783° NW33.879°2024-12-22 20:31:14.062Z16.544° NNE
10 mins2024-12-23 03:38:14.062Z346.719° N2024-12-23 03:42:14.062Z42.753° NE34.444°2024-12-23 03:48:14.062Z122.038° SE
8 mins2024-12-23 05:25:14.062Z299.534° NW2024-12-23 05:29:14.062Z241.7° WSW28.254°2024-12-23 05:33:14.062Z192.99° SSW
|